Change the Weather History Date:

Friday, January 24, 2014

  Actual Average Record
Temperature  
Mean Temperature 31 °F -  
Max Temperature 48 °F 61 °F 87 °F (1970)
Min Temperature 14 °F 28 °F 11 °F (1963)
Degree Days  
Heating Degree Days 34    
Moisture  
Dew Point -2 °F    
Average Humidity 27    
Maximum Humidity 43    
Minimum Humidity 16    
Precipitation  
Precipitation 0.00 in - - ()
Sea Level Pressure  
Sea Level Pressure 30.52 in    
Wind  
Wind Speed 5 mph (SW)    
Max Wind Speed 9 mph    
Max Gust Speed -    
Visibility 10 miles    
Events      
Averages and records for this station are not official NWS values.
T = Trace of Precipitation, MM = Missing Value Source: NWS Daily Summary

Daily Weather History Graph

Daily Weather History Graph

Search for Another Location

Airport or City:

Trip Planner

Search our weather history database for the weather conditions in past years. The results will help you decide how hot, cold, wet, or windy it might be!

Date:

Astronomy

Jan. 24, 2014 Rise Set
Actual Time 7:50 AM CST 6:19 PM CST
Civil Twilight 7:24 AM CST 6:45 PM CST
Nautical Twilight 6:54 AM CST 7:15 PM CST
Astronomical Twilight 6:25 AM CST 7:44 PM CST
Moon 1:24 AM CST (1/24) 12:36 PM CST (1/24)
Length of Visible Light 11h 21m
Length of Day
10h 29m
Last Quarter, 44% of the Moon is Illuminated
Jan 24
Last Quarter
Jan 30
New
Feb 6
First Quarter
Feb 14
Full
Feb 22
Last Quarter

Hourly Weather History & Observations

Time (CST) Temp. Windchill Dew Point Humidity Pressure Visibility Wind Dir Wind Speed Gust Speed Precip Events Conditions
12:53 AM 19.9 °F 14.9 °F -9.9 °F 26% 30.73 in 10.0 mi NNW 3.5 mph - N/A   Clear
1:53 AM 19.0 °F 11.1 °F -9.0 °F 29% 30.72 in 10.0 mi North 5.8 mph - N/A   Clear
2:53 AM 17.1 °F 10.0 °F -7.1 °F 34% 30.72 in 10.0 mi North 4.6 mph - N/A   Clear
3:53 AM 17.1 °F - -7.1 °F 34% 30.71 in 10.0 mi Calm Calm - N/A   Clear
4:53 AM 16.0 °F 8.8 °F -6.0 °F 38% 30.69 in 10.0 mi North 4.6 mph - N/A   Clear
5:53 AM 15.1 °F 9.4 °F -6.0 °F 39% 30.70 in 10.0 mi North 3.5 mph - N/A   Clear
6:53 AM 14.0 °F 5.1 °F -5.1 °F 43% 30.70 in 10.0 mi North 5.8 mph - N/A   Clear
7:53 AM 15.1 °F - -5.1 °F 41% 30.68 in 10.0 mi Calm Calm - N/A   Clear
8:53 AM 19.0 °F - -6.0 °F 33% 30.67 in 10.0 mi Calm Calm - N/A   Clear
9:53 AM 24.1 °F 17.0 °F -9.0 °F 23% 30.64 in 10.0 mi SW 5.8 mph - N/A   Clear
10:53 AM 27.0 °F 19.5 °F -9.0 °F 21% 30.62 in 10.0 mi SW 6.9 mph - N/A   Clear
11:53 AM 30.9 °F 23.5 °F -9.9 °F 17% 30.58 in 10.0 mi SW 8.1 mph - N/A   Clear
12:53 PM 35.1 °F 28.6 °F -8.0 °F 16% 30.52 in 10.0 mi South 8.1 mph - N/A   Clear
1:53 PM 39.0 °F 33.4 °F -2.9 °F 17% 30.46 in 10.0 mi West 8.1 mph - N/A   Clear
2:53 PM 43.0 °F 37.7 °F -0.0 °F 17% 30.40 in 10.0 mi SW 9.2 mph - N/A   Clear
3:53 PM 46.0 °F 42.5 °F 1.9 °F 16% 30.35 in 10.0 mi WSW 6.9 mph - N/A   Clear
4:53 PM 48.9 °F - 5.0 °F 17% 30.33 in 10.0 mi SW 6.9 mph - N/A   Clear
5:53 PM 46.9 °F - 5.0 °F 18% 30.33 in 10.0 mi SSW 5.8 mph - N/A   Clear
6:53 PM 43.0 °F 39.5 °F 5.0 °F 21% 30.34 in 10.0 mi South 5.8 mph - N/A   Clear
7:53 PM 39.0 °F 34.0 °F 6.1 °F 26% 30.35 in 10.0 mi SSE 6.9 mph - N/A   Clear
8:53 PM 37.0 °F 31.6 °F 6.1 °F 28% 30.33 in 10.0 mi SSE 6.9 mph - N/A   Clear
9:53 PM 33.1 °F 26.9 °F 6.1 °F 32% 30.33 in 10.0 mi SE 6.9 mph - N/A   Clear
10:53 PM 32.0 °F 25.6 °F 6.1 °F 34% 30.32 in 10.0 mi SSE 6.9 mph - N/A   Clear
11:53 PM 30.0 °F - 6.1 °F 36% 30.30 in 10.0 mi Calm Calm - N/A   Clear